This is the latest recevied weather packets stored in our database for station/object K4JOZ. If no packets are shown the sender has not sent any weather packets the latest 10 day(s).
| Time | Temp. | Humidity | Pressure | Rain* | Wind** | Luminosity | Snow |
|---|---|---|---|---|---|---|---|
| 1777853269 | 16.67° C | 46% | 1014.4 hPa | 0 mm | - | - | - |
| 1777852369 | 17.22° C | 45% | 1014.6 hPa | 0 mm | - | - | - |
| 1777851469 | 17.22° C | 42% | 1014.6 hPa | 0 mm | - | - | - |
| 1777850569 | 17.78° C | 42% | 1014.7 hPa | 0 mm | - | - | - |
| 1777849669 | 17.78° C | 42% | 1015 hPa | 0 mm | - | - | - |
| 1777848769 | 17.22° C | 41% | 1015 hPa | 0 mm | - | - | - |
| 1777847869 | 17.78° C | 38% | 1015.2 hPa | 0 mm | - | - | - |
| 1777846969 | 17.78° C | 38% | 1015.3 hPa | 0 mm | - | - | - |
| 1777846069 | 17.78° C | 39% | 1015.3 hPa | 0 mm | - | - | - |
| 1777845169 | 17.22° C | 39% | 1015.5 hPa | 0 mm | - | - | - |
| 1777844269 | 17.22° C | 40% | 1015.6 hPa | 0 mm | - | - | - |
| 1777843369 | 17.22° C | 40% | 1015.8 hPa | 0 mm | - | - | - |
| 1777842469 | 17.22° C | 43% | 1016 hPa | 0 mm | - | - | - |
| 1777841569 | 17.78° C | 41% | 1015.9 hPa | 0 mm | - | - | - |
| 1777840669 | 17.22° C | 39% | 1016.3 hPa | 0 mm | - | - | - |
| 1777839769 | 17.22° C | 43% | 1016.5 hPa | 0 mm | - | - | - |
| 1777838917 | 16.67° C | 39% | 1016.8 hPa | 0 mm | - | - | - |
| 1777838869 | 16.67° C | 39% | 1016.8 hPa | 0 mm | - | - | - |
| 1777837969 | 16.67° C | 41% | 1017 hPa | 0 mm | - | - | - |
| 1777837069 | 16.11° C | 40% | 1017.3 hPa | 0 mm | - | - | - |
| 1777836169 | 16.11° C | 39% | 1017.5 hPa | 0 mm | - | - | - |
| 1777835269 | 16.11° C | 39% | 1017.7 hPa | 0 mm | - | - | - |
| 1777834369 | 15.56° C | 42% | 1017.8 hPa | 0 mm | - | - | - |
| 1777833469 | 15° C | 43% | 1018 hPa | 0 mm | - | - | - |
| 1777832569 | 15° C | 44% | 1018.3 hPa | 0 mm | - | - | - |
* Rain latest hour (hover to see other rain measurements)
** Current wind speed in m/s (hover to see current wind gust speed)